COSMOS 2251 DEB, 33920

Orbit data source: Space-Track

COSMOS 2251 DEB, 33920 is space debris in LEO originally from a launch on Wed, 16 Jun 1993 UTC launched from the Plesetsk Missile And Space Complex (PKMTR). The debris from Iridium 33, an American commercial communications satellite, has been tracked extensively since its accidental collision with the defunct Russian satellite Cosmos 2251 in 2009. This event, occurring at high speed in low Earth orbit (LEO), generated thousands of pieces of space debris, significantly increasing the risk of further collisions. The Iridium 33 debris cloud has impacted space traffic management and orbital debris mitigation strategies, making it a subject of ongoing study in space situational awareness.

Loading next visibility...
Identifier
33920, 1993-036DZ
Orbit
LEO
Country
Flag of CISCIS
Related business
Manufacturer
Unknown
Mission
Spacecraft
Bus & Motor
Unknown
Mass
Unknown
Launch date (UTC)
1993-06-16 (33 years ago)
Launch vehicle
Unknown
Launch site
Plesetsk Missile And Space Complex (PKMTR)
Object type
Payload
Rocket body
Debris
Shape & HBR
Unknown shape, 0.1 m
Radar Cross Section
Small (<0.1 m²)

Expand to show TLE details & history
Last TLE update: 1 day ago

TLE from 1 day ago
0 COSMOS 2251 DEB
1 33920U 93036DZ  26237.24544483  .00005405  00000-0  10843-2 0  9994
2 33920  74.0598 171.3866 0031758 119.7627 240.6705 14.61625654918441
Epoch: 2026-08-25T05:53Z
TLE epoch observation values (Epoch: 2026-08-25T05:53:26.433Z)
Latitude
-0.00006°
Longitude
109.51089°
Altitude
701.621 km
Speed
7.499 km/s
True Right ascension
11h 25m 32s
True Declination
0° 00' 00"
Sunlit
Object was in daylight at epoch
Visualization orbit readout
Latitude
Unknown
Longitude
Unknown
Altitude
Unknown
Speed
Unknown
Apparent Right ascension
Unknown
Apparent Declination
Unknown
Sunlit
N/A
Visualization observer readout
Local Sidereal Time
01:14:05
Azimuth
Unknown
Elevation
Unknown
Doppler factor
Unknown
Orbital elements
Apogee altitude
707.956 km
Perigee altitude
663.091 km
Semi-major axis
7,063.66 km
Eccentricity
0.00318
Inclination
74.0598°
RAAN
171.3866°
Arg. of periapsis
119.7627°
True anomaly
240.35385°
Mean anomaly
240.6705°
Eccentric anomaly
240.51211°
Mean motion
3.65593 °/min
Orbital period
98.47 mins
BSTAR
0.0010843
Loading maneuver chart data...
Computing Atmospheric mass density...

Documentation

Showing up to 5 results
|